Vertical_Velocity
-9 -11 16 13 5 -1 10 16 -3 4 2 -3 2 -3 -3 -1 -0 1 2 1 0 2
13 24 0 -2 -4 -1 0 -4 -1 -1 -0 4 -1 1 -2 0 4 5 -0 -3 -1 4
46 2 -1 0 -13 5 -9 -5 0 6 7 -2 4 5 4 0 -2 5 7 3 5 5
13 -2 24 2 -6 -4 -7 2 0 -0 16 17 10 4 5 5 -1 -6 0 3 7 1
12 24 14 4 6 3 8 7 4 8 5 6 7 9 3 4 4 10 3 3 4 1
1 17 12 1 15 10 14 3 0 11 6 10 3 -1 2 1 1 1 1 -2 -4 -2
8 6 12 -0 -11 3 -0 6 6 -1 6 2 3 6 8 8 2 0 1 8 0 -4
12 5 9 5 5 -12 -3 -1 -1 1 -3 8 2 7 4 3 -1 17 8 19 26 10
9 6 1 -2 -7 -4 8 4 -7 4 -9 9 3 8 10 7 1 3 -0 7 5 -1
9 -5 6 -4 19 11 14 -4 9 7 3 2 2 3 1 -3 5 1 9 2 3 2
3 4 9 3 2 17 3 3 6 10 8 6 4 2 2 -1 3 4 1 4 4 0
-4 -0 -1 0 3 3 10 9 2 -5 4 -2 -2 2 -3 -6 -2 -5 -2 -4 -3 -4
1 -0 -3 -3 -0 5 2 -2 4 -2 5 1 -2 -2 0 -2 1 -2 -0 -5 -4 -0
4 3 2 8 6 -1 5 3 1 -0 -3 4 5 -4 -3 -4 -4 -2 -3 -2 -3 1
Height
5590 5594 5593 5597 5607 5618 5621 5628 5636 5646 5656 5667 5677 5686 5697 5707 5717 5723 5729 5736 5739 5744
5591 5590 5595 5599 5606 5612 5621 5625 5632 5639 5651 5660 5669 5677 5687 5697 5706 5714 5720 5725 5728 5732
5590 5595 5599 5600 5610 5613 5617 5618 5626 5636 5646 5654 5662 5670 5679 5688 5695 5702 5708 5713 5717 5721
5591 5595 5596 5600 5606 5613 5617 5617 5623 5631 5640 5648 5656 5664 5670 5677 5682 5690 5696 5703 5706 5707
5588 5589 5593 5601 5608 5610 5614 5615 5619 5626 5634 5642 5651 5656 5661 5667 5673 5679 5682 5687 5691 5694
5589 5590 5594 5598 5603 5608 5609 5613 5616 5618 5626 5633 5640 5645 5650 5655 5661 5666 5671 5675 5676 5678
5587 5591 5593 5597 5602 5605 5609 5609 5612 5616 5620 5626 5631 5637 5642 5648 5652 5656 5660 5664 5667 5670
5591 5590 5593 5595 5600 5604 5606 5608 5612 5614 5618 5620 5623 5628 5632 5636 5643 5650 5654 5658 5662 5664
5588 5590 5590 5594 5598 5600 5602 5604 5610 5612 5616 5618 5620 5624 5628 5632 5635 5639 5644 5649 5652 5653
5583 5586 5590 5592 5595 5597 5597 5602 5605 5607 5610 5614 5617 5621 5624 5628 5630 5635 5637 5640 5642 5643
5581 5584 5586 5588 5591 5593 5595 5598 5600 5603 5606 5609 5612 5616 5619 5622 5624 5626 5628 5630 5632 5634
5578 5580 5583 5584 5586 5588 5592 5593 5596 5599 5601 5604 5606 5609 5613 5616 5618 5620 5622 5623 5625 5627
5573 5576 5579 5581 5581 5583 5586 5589 5591 5593 5596 5598 5601 5603 5605 5608 5609 5612 5614 5614 5616 5617
5569 5570 5572 5573 5575 5577 5579 5582 5585 5587 5589 5591 5595 5598 5599 5600 5602 5603 5605 5605 5605 5606